GW4552 Weather Reports


time (UTC)temp
C
wind
direction
speed
KPH
gust
KPH
rain 1hr
cm
rain 24hr
cm
rain mn
cm
humidity
%
barometer
mb
20260503175006 13 215 6.4 22.5 0.00 0.00 0.00 40 1016.7
20260503174500 12 244 19.3 20.9 0.00 0.00 0.00 40 1016.7
20260503174002 12 204 11.3 19.3 0.00 0.00 0.00 44 1016.9
20260503173501 12 261 8.0 12.9 0.00 0.00 0.00 41 1016.9
20260503173007 11 51 4.8 14.5 0.00 0.00 0.00 43 1016.9
20260503172500 12 261 11.3 16.1 0.00 0.00 0.00 41 1016.8
20260503172006 13 236 4.8 9.7 0.00 0.00 0.00 42 1016.9
20260503171500 11 273 0.0 12.9 0.00 0.00 0.00 39 1017.0
20260503171001 12 257 9.7 17.7 0.00 0.00 0.00 43 1017.0
20260503170506 11 235 12.9 33.8 0.00 0.00 0.00 41 1017.2
20260503151001 10 223 3.2 19.3 0.00 0.00 0.00 44 1017.7
20260503150500 10 257 12.9 20.9 0.00 0.00 0.00 43 1017.9
20260503131000 5 252 8.0 17.7 0.00 0.00 0.00 68 1018.3
20260503130501 5 226 9.7 17.7 0.00 0.00 0.00 70 1018.3
20260503110500 -1 66 0.0 1.6 0.00 0.00 0.00 96 1017.4
20260503090501 -1 98 0.0 1.6 0.00 0.00 0.00 96 1016.8
20260503081500 -1 76 0.0 1.6 0.00 0.00 0.00 95 1016.8
20260503081000 -1 113 0.0 1.6 0.00 0.00 0.00 95 1016.9
20260503080501 -1 116 0.0 1.6 0.00 0.00 0.00 95 1017.0
20260503072501 0 133 0.0 1.6 0.00 0.00 0.00 95 1016.6
20260503072000 0 214 0.0 3.2 0.00 0.00 0.00 95 1016.8
20260503071500 0 192 0.0 1.6 0.00 0.00 0.00 95 1016.7
20260503071001 0 233 1.6 3.2 0.00 0.00 0.00 95 1016.7
20260503070500 0 124 0.0 0.0 0.00 0.00 0.00 95 1016.6
20260503055001 0 147 0.0 1.6 0.00 0.00 0.00 94 1017.0
20260503054500 0 218 0.0 1.6 0.00 0.00 0.00 94 1016.9
20260503054001 0 13 0.0 1.6 0.00 0.00 0.00 94 1016.9
20260503053511 0 52 0.0 1.6 0.00 0.00 0.00 94 1017.1
20260503053001 0 30 0.0 1.6 0.00 0.00 0.00 94 1017.1
20260503052500 0 65 0.0 3.2 0.00 0.00 0.00 94 1016.9
20260503052001 0 76 0.0 1.6 0.00 0.00 0.00 94 1017.0
20260503051506 0 64 0.0 0.0 0.00 0.00 0.00 94 1016.9
20260503051006 0 119 0.0 1.6 0.00 0.00 0.00 94 1017.3
20260503050500 0 82 0.0 3.2 0.00 0.00 0.00 94 1017.1
20260503050001 0 52 0.0 3.2 0.00 0.00 0.00 94 1017.2
20260503045500 0 214 1.6 3.2 0.00 0.00 0.00 94 1017.0
20260503045001 0 124 0.0 3.2 0.00 0.00 0.00 93 1017.2
20260503044500 0 288 0.0 1.6 0.00 0.00 0.00 93 1017.2
20260503044001 0 304 0.0 1.6 0.00 0.00 0.00 93 1017.1
20260503043501 0 229 0.0 0.0 0.00 0.00 0.00 93 1017.2
20260503043001 0 180 0.0 1.6 0.00 0.00 0.00 93 1017.3
20260503042505 0 212 0.0 1.6 0.00 0.00 0.00 92 1017.4
20260503042001 0 329 0.0 3.2 0.00 0.00 0.00 92 1017.1
20260503041500 0 60 0.0 1.6 0.00 0.00 0.00 92 1017.2
20260503041001 0 46 0.0 3.2 0.00 0.00 0.00 92 1017.2
20260503040501 0 54 1.6 3.2 0.00 0.00 0.00 91 1017.1
20260503040001 0 62 1.6 3.2 0.00 0.00 0.08 91 1017.2
20260503035501 0 20 0.0 3.2 0.00 0.00 0.08 91 1017.2
20260503035016 0 60 0.0 1.6 0.00 0.00 0.08 90 1017.2
20260503034500 0 89 0.0 1.6 0.00 0.00 0.08 90 1017.2
20260503034001 0 89 0.0 1.6 0.00 0.00 0.08 89 1017.2
20260503033501 0 72 0.0 3.2 0.00 0.00 0.08 89 1017.2
20260503033000 0 341 0.0 1.6 0.00 0.00 0.08 88 1017.1
20260503032501 1 66 0.0 1.6 0.00 0.00 0.08 88 1017.2
20260503032001 1 135 0.0 1.6 0.00 0.00 0.08 87 1017.2
20260503031500 1 146 0.0 1.6 0.00 0.00 0.08 86 1017.1
20260503031001 1 135 0.0 3.2 0.00 0.00 0.08 86 1017.2
20260503030501 1 92 0.0 1.6 0.00 0.00 0.08 86 1017.3
20260503030000 1 65 0.0 0.0 0.00 0.00 0.08 85 1017.3
20260503025501 2 49 0.0 3.2 0.00 0.00 0.08 86 1017.2
20260503025001 2 17 0.0 3.2 0.00 0.00 0.08 86 1017.2
20260503024501 2 29 0.0 1.6 0.00 0.00 0.08 86 1017.5
20260503024006 2 32 0.0 0.0 0.00 0.00 0.08 87 1017.4
20260503023501 2 302 0.0 1.6 0.00 0.00 0.08 86 1017.4
20260503023000 2 103 0.0 0.0 0.00 0.00 0.08 86 1017.6
20260503022501 2 264 0.0 0.0 0.00 0.00 0.08 85 1017.4
20260503022011 2 243 0.0 1.6 0.00 0.00 0.08 84 1017.7
20260503021500 2 66 0.0 1.6 0.00 0.00 0.08 83 1017.4
20260503021006 2 60 0.0 1.6 0.00 0.00 0.08 82 1017.5
20260503020502 2 76 0.0 1.6 0.00 0.00 0.08 81 1017.4
20260503020005 2 72 0.0 1.6 0.00 0.00 0.08 80 1017.3
20260503015500 2 63 1.6 1.6 0.00 0.00 0.08 79 1017.5
20260503015001 2 228 0.0 1.6 0.00 0.00 0.08 78 1017.3
20260503014500 2 124 0.0 1.6 0.00 0.00 0.08 76 1017.5
20260503014001 3 211 0.0 1.6 0.00 0.00 0.08 76 1017.4
20260503013500 3 272 1.6 3.2 0.00 0.00 0.08 74 1017.4
20260503013001 3 339 0.0 1.6 0.00 0.00 0.08 73 1017.4
20260503012500 3 29 0.0 3.2 0.00 0.00 0.08 73 1017.6
20260503012001 3 269 1.6 1.6 0.00 0.00 0.08 72 1017.4
20260503011500 3 24 1.6 3.2 0.00 0.00 0.08 72 1017.4
20260503011006 3 347 3.2 4.8 0.00 0.00 0.08 71 1017.3
20260503010500 3 144 0.0 3.2 0.00 0.00 0.08 72 1017.3
20260503010011 3 257 1.6 3.2 0.00 0.00 0.08 72 1017.2
20260503005500 4 331 3.2 4.8 0.00 0.00 0.08 72 1017.1
20260503005001 4 19 3.2 3.2 0.00 0.00 0.08 70 1017.2
20260503004500 4 346 3.2 8.0 0.00 0.00 0.08 70 1017.1
20260503004001 4 7 4.8 6.4 0.00 0.00 0.08 70 1017.0
20260503003500 4 354 4.8 8.0 0.00 0.00 0.08 70 1017.1
20260503003001 4 351 0.0 3.2 0.00 0.00 0.08 70 1016.8
20260503002501 4 298 0.0 3.2 0.00 0.00 0.08 70 1016.8
20260503002001 4 6 3.2 6.4 0.00 0.00 0.08 69 1016.9
20260503001500 4 22 1.6 3.2 0.00 0.00 0.08 69 1017.0
20260503001001 5 43 3.2 6.4 0.00 0.00 0.08 68 1016.8
20260503000500 5 336 0.0 3.2 0.00 0.00 0.08 68 1016.8
20260503000001 5 20 0.0 4.8 0.00 0.00 0.08 68 1016.9
20260502235500 5 327 3.2 4.8 0.00 0.00 0.08 68 1016.6
20260502235001 5 33 3.2 4.8 0.00 0.00 0.08 69 1016.8
20260502234500 5 56 4.8 4.8 0.00 0.00 0.08 70 1016.8
20260502234001 5 14 3.2 4.8 0.00 0.00 0.08 71 1016.6
20260502233501 5 50 0.0 4.8 0.00 0.00 0.08 70 1016.7
20260502233006 5 252 1.6 4.8 0.00 0.00 0.08 70 1016.7
20260502232500 5 14 3.2 4.8 0.00 0.00 0.08 71 1016.7
20260502232001 5 70 3.2 4.8 0.00 0.00 0.08 71 1016.7
20260502231500 5 110 1.6 4.8 0.00 0.00 0.08 71 1016.7
20260502231006 5 0 3.2 4.8 0.00 0.00 0.08 71 1016.7
20260502230500 5 265 1.6 4.8 0.00 0.00 0.08 72 1016.7
20260502230001 5 269 4.8 6.4 0.00 0.00 0.08 71 1016.8
20260502225505 5 248 1.6 4.8 0.00 0.00 0.08 70 1016.8
20260502225001 5 285 0.0 4.8 0.00 0.00 0.08 70 1016.8
20260502224501 5 15 1.6 3.2 0.00 0.00 0.08 70 1016.7
20260502224001 5 356 4.8 6.4 0.00 0.00 0.08 69 1016.7
20260502223500 5 14 3.2 9.7 0.00 0.00 0.08 69 1016.6
20260502223001 5 96 4.8 4.8 0.00 0.00 0.08 69 1016.8
20260502222501 5 0 1.6 4.8 0.00 0.00 0.08 68 1016.7
20260502222001 5 28 3.2 6.4 0.00 0.00 0.08 67 1016.6
20260502221506 5 22 6.4 6.4 0.00 0.00 0.08 66 1016.6
20260502221000 5 264 4.8 6.4 0.00 0.00 0.08 68 1016.5
20260502220501 6 26 3.2 3.2 0.00 0.00 0.08 69 1016.6
20260502220000 5 11 3.2 9.7 0.00 0.00 0.08 67 1016.6
20260502215501 5 11 3.2 9.7 0.00 0.00 0.08 67 1016.6
20260502215000 5 357 6.4 11.3 0.00 0.00 0.08 68 1016.4
20260502214501 5 5 6.4 12.9 0.00 0.00 0.08 68 1016.7
20260502214001 5 35 4.8 11.3 0.00 0.00 0.08 68 1016.6
20260502213501 5 16 6.4 16.1 0.00 0.00 0.08 66 1016.4
20260502213000 6 9 8.0 12.9 0.00 0.00 0.08 65 1016.4
20260502212501 6 331 6.4 12.9 0.00 0.00 0.08 68 1016.3
20260502212000 6 340 8.0 12.9 0.00 0.00 0.08 64 1016.2
20260502211511 7 60 4.8 11.3 0.00 0.00 0.08 63 1016.3
20260502211000 7 28 4.8 9.7 0.00 0.00 0.08 65 1016.1
20260502210506 6 4 9.7 16.1 0.00 0.00 0.08 64 1016.2
20260502210000 7 5 6.4 11.3 0.00 0.00 0.08 63 1016.2
20260502205506 8 26 4.8 6.4 0.00 0.00 0.08 64 1016.1
20260502205000 7 14 3.2 4.8 0.00 0.00 0.08 67 1016.3
20260502204501 6 348 6.4 9.7 0.00 0.00 0.08 66 1016.1
20260502204000 6 55 3.2 11.3 0.00 0.00 0.08 68 1016.2
20260502203501 5 30 4.8 9.7 0.00 0.00 0.08 68 1016.3
20260502203001 5 13 8.0 11.3 0.00 0.00 0.08 70 1016.3
20260502202501 5 6 3.2 6.4 0.00 0.00 0.08 74 1016.4
20260502202001 5 10 1.6 11.3 0.00 0.00 0.08 75 1016.4
20260502201501 5 35 4.8 8.0 0.00 0.00 0.08 75 1016.4
20260502201001 5 263 4.8 12.9 0.00 0.00 0.08 74 1016.4
20260502200501 5 306 1.6 9.7 0.00 0.00 0.08 73 1016.4
20260502200005 5 20 4.8 11.3 0.00 0.00 0.08 73 1016.2
20260502195501 5 27 6.4 11.3 0.00 0.00 0.08 72 1016.3
20260502195006 6 355 4.8 12.9 0.00 0.00 0.08 73 1016.4
20260502194501 6 16 3.2 3.2 0.00 0.00 0.08 74 1016.3
20260502194000 6 9 9.7 9.7 0.00 0.00 0.08 72 1016.4
20260502193501 6 293 0.0 9.7 0.00 0.00 0.08 70 1016.4
20260502193006 6 337 4.8 11.3 0.00 0.00 0.08 71 1016.3
20260502192501 6 9 6.4 6.4 0.00 0.00 0.08 71 1016.4
20260502192001 6 67 3.2 11.3 0.00 0.00 0.08 69 1016.3
20260502191501 6 289 8.0 14.5 0.00 0.00 0.08 71 1016.5
20260502191006 6 2 9.7 9.7 0.00 0.00 0.08 70 1016.6
20260502190500 6 37 6.4 9.7 0.00 0.00 0.08 72 1016.7
20260502190001 6 46 4.8 6.4 0.00 0.00 0.08 75 1016.6
20260502185500 6 43 1.6 8.0 0.00 0.00 0.08 73 1016.7
20260502185001 6 0 6.4 6.4 0.00 0.00 0.08 73 1016.8
20260502184505 7 21 1.6 4.8 0.00 0.00 0.08 72 1016.8
20260502184001 6 242 4.8 8.0 0.00 0.00 0.08 74 1016.9
20260502183500 7 344 6.4 9.7 0.00 0.00 0.08 72 1016.8
20260502183006 7 52 3.2 9.7 0.00 0.00 0.08 74 1016.8
20260502182500 6 358 6.4 8.0 0.00 0.00 0.08 78 1016.8
20260502182006 5 318 3.2 4.8 0.00 0.00 0.08 81 1017.0
20260502181500 5 47 4.8 16.1 0.00 0.00 0.08 79 1016.7
20260502181001 5 40 11.3 12.9 0.00 0.00 0.08 81 1016.8
20260502180501 5 349 4.8 8.0 0.00 0.00 0.08 82 1016.9